Tracking 29042 objects as of 22-Jun-2024
HD Live streaming from Space Station
objects crossing your sky now

STARLINK-3870

Track STARLINK-3870 now!
10-day predictions
STARLINK-3870 is classified as:


NORAD ID: 52451
Int'l Code: 2022-049A
Perigee: 546.1 km
Apogee: 547.7 km
Inclination: 53.2 °
Period: 95.4 minutes
Semi major axis: 6917 km
RCS: Unknown
Launch date: May 6, 2022
Source: United States (US)
Launch site: AIR FORCE EASTERN TEST RANGE (AFETR)
Your satellite tracking list
Your tracking list is empty




NASA's NSSDC Master Catalog

Two Line Element Set (TLE):
1 52451U 22049A   24173.54453923  .00000080  00000-0  23085-4 0  9996
2 52451  53.2176 359.9954 0001159  83.1066 277.0058 15.08830202117587
Source of the keplerian elements: AFSPC